Location: Newark
(58.8333°N, 23.5833°E)
Time: 05:02:45
(UTC+00:00)

Vanguard 2 - Pass Details

Date: 24 November 2019
Orbit: 553 x 2938 km, 32.9° (Epoch: 08 December)

Event Time Altitude Azimuth Distance (km) Brightness Sun altitude
Rises 05:40:44 0° 219° (SW) 5,958 12.0 -6.7°
Reaches altitude 10° 05:48:46 10° 193° (SSW) 4,291 11.6 -5.8°
Maximum altitude 05:51:52 11° 176° (S) 3,877 11.6 -5.5°
Drops below altitude 10° 05:54:38 10° 160° (SSE) 3,720 11.9 -5.2°
Sets 06:00:02 0° 129° (SE) 4,124 14.0 -4.6°
